Date,TemperatureHighF,TemperatureAvgF,TemperatureLowF,DewpointHighF,DewpointAvgF,DewpointLowF,HumidityHigh,HumidityAvg,HumidityLow,PressureMaxIn,PressureMinIn,WindSpeedMaxMPH,WindSpeedAvgMPH,GustSpeedMaxMPH,PrecipitationSumIn
2013-1-1,26.7,17.7,10.9,18.0,9.0,3.3,73,68,61,30.26,30.08,5,2,8,0.00
2013-1-2,35.8,26.5,15.9,28.7,19.4,9.3,76,74,70,30.17,30.01,7,1,9,0.00
2013-1-3,33.0,26.2,20.6,26.6,19.2,13.7,84,74,65,30.36,30.17,12,3,17,0.00
2013-1-4,38.7,26.3,19.2,28.8,18.4,13.4,79,72,61,30.27,30.09,5,2,7,0.00
2013-1-5,35.5,27.2,20.3,27.7,19.7,14.0,80,73,64,30.16,29.95,13,3,20,0.00
2013-1-6,37.3,27.1,18.6,26.7,19.5,12.3,78,73,64,30.28,30.08,12,3,17,0.00
2013-1-7,42.9,34.2,29.1,32.0,26.1,22.4,78,72,64,30.08,29.91,8,3,13,0.00
2013-1-8,44.1,35.0,26.9,34.0,27.7,21.0,81,74,66,30.08,29.81,8,2,12,0.00
2013-1-9,46.8,37.0,27.1,34.6,29.2,21.8,81,73,62,30.38,30.08,4,2,6,0.00
2013-1-10,42.1,38.7,36.6,35.2,31.3,25.8,89,75,58,30.28,29.67,8,3,13,0.06
2013-1-11,53.4,43.2,31.2,47.0,38.8,22.6,93,85,70,29.72,29.37,12,5,18,0.00
2013-1-12,30.6,21.5,12.5,21.3,10.3,3.7,68,62,51,30.10,29.73,10,5,17,0.00
2013-1-13,23.9,16.0,9.4,10.9,5.2,1.4,72,62,45,30.28,30.08,10,4,15,0.00
2013-1-14,32.4,21.8,11.6,19.2,11.6,3.9,78,64,53,30.40,30.28,5,1,9,0.00
2013-1-15,37.3,26.8,18.5,21.4,15.5,10.4,71,63,48,30.30,30.01,8,2,11,0.00
2013-1-16,51.6,38.0,24.9,35.3,26.6,16.2,76,64,49,30.18,29.88,8,3,16,0.00
2013-1-17,37.1,32.1,26.0,30.3,25.6,19.8,83,76,72,30.40,30.18,6,2,9,0.00
2013-1-18,53.4,41.0,30.8,37.3,30.8,25.6,83,68,51,30.23,29.86,8,3,12,0.00
2013-1-19,53.2,40.4,23.9,32.8,27.0,12.0,73,60,43,30.29,29.83,13,5,22,0.00
2013-1-20,24.0,20.0,16.7,13.2,9.1,5.2,69,62,48,30.36,30.26,8,3,12,0.00
2013-1-21,19.2,12.7,6.7,9.7,-1.5,-6.3,69,53,44,30.40,30.30,10,4,20,0.00
2013-1-22,21.5,16.4,11.6,11.4,6.8,1.0,72,66,54,30.33,30.20,5,2,9,0.00
2013-1-23,29.8,20.8,12.3,18.0,10.8,0.7,71,65,57,30.45,30.11,11,4,16,0.00
2013-1-24,21.5,12.5,3.8,7.8,0.5,-6.1,65,58,53,30.50,30.13,8,4,13,0.00
2013-1-25,47.0,31.5,18.1,31.6,18.6,7.3,78,59,45,30.19,30.06,8,2,11,0.00
2013-1-26,45.7,31.3,17.6,28.5,19.9,9.3,75,63,50,30.21,29.98,8,5,13,0.00
2013-1-27,43.4,39.5,35.3,40.1,34.7,24.5,89,83,57,29.98,29.67,10,4,15,0.11
2013-1-28,46.6,40.6,34.6,44.7,37.9,31.6,93,90,86,29.85,29.53,6,2,10,0.00
2013-1-29,42.9,35.4,31.5,40.4,31.4,28.0,92,85,81,29.67,29.52,10,5,17,0.00
2013-1-30,31.5,24.0,17.0,28.5,17.5,8.9,92,76,61,29.90,29.59,16,8,28,0.02
2013-1-31,17.2,9.0,4.0,9.4,-0.6,-6.1,73,64,55,30.37,29.90,17,7,25,0.00
2013-2-1,29.1,15.9,1.8,20.4,7.5,-6.3,73,69,66,30.37,30.02,10,4,15,0.00
2013-2-2,38.0,31.2,26.2,30.0,23.5,18.0,80,73,66,30.15,30.01,8,3,13,0.01
2013-2-3,42.3,34.6,24.8,31.8,24.8,16.1,76,67,60,30.17,29.76,10,4,18,0.00
2013-2-4,36.9,29.7,24.2,29.0,22.6,19.5,83,74,66,29.98,29.74,10,3,19,0.00
2013-2-5,49.7,38.2,28.4,33.9,27.2,22.8,81,66,42,30.03,29.80,11,3,22,0.00
2013-2-6,52.9,42.1,32.2,39.8,32.5,24.4,78,69,58,30.03,29.80,8,4,13,0.00
2013-2-7,46.8,35.6,30.8,41.3,29.3,23.4,84,78,73,30.19,29.84,12,6,19,0.00
2013-2-8,34.0,30.2,27.5,26.9,24.2,22.0,85,78,72,30.29,30.11,7,4,12,0.00
2013-2-9,49.3,37.9,28.7,38.3,31.5,24.8,86,78,64,30.13,29.66,12,8,17,0.00
2013-2-10,46.1,38.5,32.1,41.9,32.8,22.8,93,80,67,29.76,29.27,12,8,19,0.01
2013-2-11,39.1,32.6,28.4,27.2,23.2,20.8,79,68,58,30.12,29.76,11,5,16,0.00
2013-2-12,49.5,35.5,23.7,32.0,24.2,17.6,80,65,48,30.11,29.86,7,2,9,0.00
2013-2-13,55.0,40.5,27.8,35.9,27.5,19.7,74,61,44,29.88,29.70,5,2,9,0.00
2013-2-14,46.1,38.6,24.9,32.4,27.0,13.7,82,64,43,30.22,29.76,14,6,19,0.00
2013-2-15,35.1,26.4,18.5,21.9,16.0,10.7,79,65,47,30.31,30.23,11,3,15,0.00
2013-2-16,34.0,26.1,15.4,25.0,18.1,8.6,76,71,67,30.28,29.97,7,3,10,0.00
2013-2-17,54.1,39.0,25.8,37.3,27.7,19.0,76,65,50,29.97,29.54,10,5,15,0.00
2013-2-18,47.4,34.3,22.2,34.8,25.4,13.4,86,70,60,30.02,29.52,18,8,24,0.00
2013-2-19,26.2,17.7,9.9,14.3,3.4,-0.4,71,55,34,30.32,30.02,15,8,21,0.00
2013-2-20,25.5,17.0,5.8,8.1,3.3,-3.7,64,55,46,30.33,30.16,10,5,14,0.00
2013-2-21,24.8,22.4,21.3,19.5,14.1,7.5,85,71,53,30.19,29.80,14,5,19,0.00
2013-2-22,30.6,22.4,15.8,22.3,15.2,7.8,83,74,62,29.99,29.80,8,3,12,0.00
2013-2-23,36.9,23.8,10.7,27.0,15.9,3.7,76,72,67,29.97,29.80,8,2,10,0.00
2013-2-24,43.2,33.2,22.8,35.3,24.9,16.9,81,72,58,30.02,29.86,5,2,7,0.00
2013-2-25,36.6,32.1,28.9,28.0,25.5,23.7,84,77,69,30.04,29.88,8,3,12,0.00
2013-2-26,33.1,30.0,27.1,28.2,25.4,23.4,87,83,78,29.88,29.74,9,6,13,0.00
2013-2-27,37.6,30.3,24.8,25.9,22.8,18.8,84,74,58,30.05,29.85,16,9,25,0.00
2013-2-28,32.8,28.4,25.8,23.9,21.7,19.2,79,76,68,30.18,30.04,12,7,18,0.00
2013-3-1,30.8,26.5,24.2,20.8,18.3,16.1,79,71,61,30.30,30.16,10,5,15,0.00
2013-3-2,36.6,29.4,23.1,24.5,19.6,14.8,73,66,58,30.29,30.06,6,3,8,0.00
2013-3-3,39.6,32.8,26.4,29.1,24.6,20.2,78,72,65,30.06,29.70,11,6,16,0.00
2013-3-4,45.2,35.6,31.0,33.2,26.3,23.2,74,69,57,29.74,29.64,9,5,14,0.00
2013-3-5,40.2,27.9,24.4,30.6,18.4,16.1,72,67,63,30.33,29.74,16,10,30,0.00
2013-3-6,38.7,29.9,22.8,24.5,19.9,15.4,73,66,54,30.37,30.20,10,4,11,0.00
2013-3-7,47.4,34.1,24.9,30.5,24.0,18.5,76,67,51,30.23,30.07,8,5,14,0.00
2013-3-8,53.0,38.3,32.1,37.3,28.5,24.2,75,68,55,30.14,30.01,8,5,13,0.00
2013-3-10,25.9,24.7,22.7,23.7,22.2,19.6,92,90,88,29.60,29.53,17,8,17,0.00
2013-3-11,34.4,26.4,21.2,25.0,20.0,16.4,88,77,64,29.66,29.55,15,4,15,0.15
2013-3-12,34.7,29.6,24.7,23.8,20.4,17.8,75,69,62,29.97,29.62,17,5,17,0.03
2013-3-13,38.3,29.8,20.5,25.7,20.3,14.4,92,68,57,30.09,29.90,12,2,12,0.01
2013-3-14,56.9,43.3,31.7,40.2,31.4,21.0,72,63,51,29.91,29.72,9,3,9,0.00
2013-3-15,61.6,47.9,37.4,44.5,37.4,31.5,81,68,49,29.75,29.39,7,2,7,0.00
2013-3-16,51.8,33.3,30.4,40.0,23.9,21.8,71,68,64,29.84,29.40,7,2,7,0.00
2013-3-17,45.0,33.9,23.6,32.6,24.5,17.5,83,69,54,29.84,29.42,15,4,15,0.00
2013-3-18,38.2,34.6,30.6,31.9,21.5,13.6,86,61,41,29.71,29.40,17,5,17,0.05
2013-3-19,61.2,31.1,24.1,45.2,17.5,12.6,68,57,30,29.97,29.71,5,1,5,0.00
2013-3-20,36.4,26.5,16.7,14.9,9.7,3.2,69,50,35,30.04,29.76,0,0,0,0.00
2013-3-21,33.5,27.9,21.6,19.1,14.0,11.0,67,56,46,29.76,29.58,0,0,0,0.00
2013-3-22,36.4,31.9,26.5,22.5,19.3,17.1,69,60,51,29.69,29.63,0,0,0,0.00
2013-3-23,38.7,33.6,29.7,28.1,24.8,20.5,85,70,56,29.77,29.67,0,0,0,0.01
2013-3-24,30.2,28.0,25.9,25.8,21.9,18.5,86,78,66,29.73,29.68,0,0,0,0.02
2013-3-25,31.5,28.0,24.8,24.0,21.7,19.4,86,77,63,29.98,29.72,0,0,0,0.01
2013-3-26,41.8,31.5,21.2,27.3,21.0,14.5,77,66,52,30.02,29.88,0,0,0,0.02
2013-3-27,52.2,39.6,28.1,31.7,26.3,20.5,74,60,43,29.92,29.82,0,0,0,0.00
2013-3-28,61.2,46.1,33.1,40.3,31.6,25.7,76,59,38,29.90,29.79,0,0,0,0.00
2013-3-29,68.2,53.4,36.4,42.6,34.6,28.1,76,52,31,29.87,29.70,0,0,0,0.00
2013-3-30,67.3,57.4,49.3,53.2,42.2,30.3,83,59,27,29.74,29.56,0,0,0,0.24
2013-3-31,57.2,49.0,35.6,40.7,32.7,22.6,86,57,28,29.79,29.61,0,0,0,0.06
2013-4-1,41.2,33.1,24.8,32.0,19.6,15.7,86,59,37,29.98,29.79,0,0,0,0.00
2013-4-2,53.6,40.8,27.7,29.9,23.1,17.8,68,51,36,29.97,29.88,0,0,0,0.00
2013-4-3,58.1,43.8,32.0,33.0,25.7,20.4,65,50,37,30.00,29.86,0,0,0,0.00
2013-4-4,63.7,50.1,34.0,41.2,31.9,23.0,67,51,39,29.87,29.70,0,0,0,0.00
2013-4-5,67.9,53.3,35.8,42.0,34.6,27.2,74,51,36,29.83,29.40,0,0,0,0.00
2013-4-6,70.2,60.8,52.6,47.8,41.0,38.3,64,49,34,29.45,29.27,0,0,0,0.00
2013-4-7,74.9,59.4,45.9,54.2,43.3,36.7,72,56,36,29.53,29.30,0,0,0,0.02
2013-4-8,68.0,59.3,49.1,58.9,52.7,43.5,87,79,70,29.39,29.28,0,0,0,0.07
2013-4-9,63.9,48.2,35.5,58.8,45.0,33.0,92,89,82,29.62,29.26,0,0,0,0.73
2013-4-10,39.1,37.0,34.6,36.9,34.4,31.8,93,90,87,29.62,29.44,0,0,0,0.51
2013-4-11,39.1,35.5,33.1,34.7,31.0,27.9,90,84,79,29.46,29.32,0,0,0,0.05
2013-4-12,42.7,37.3,33.5,30.9,29.2,26.7,84,73,60,29.68,29.39,0,0,0,0.00
2013-4-13,53.5,43.1,29.7,39.0,33.0,23.9,81,68,57,29.69,29.33,0,0,0,0.00
2013-4-14,68.8,54.8,43.7,53.7,44.1,35.0,82,68,47,29.37,29.02,0,0,0,0.04
2013-4-15,52.9,42.2,36.7,41.4,29.8,24.5,72,61,52,29.75,29.35,0,0,0,0.00
2013-4-16,52.7,44.3,36.9,34.0,30.0,27.1,69,58,42,29.89,29.72,0,0,0,0.00
2013-4-17,46.8,42.6,37.4,41.4,37.3,33.1,90,82,60,29.82,29.31,0,0,0,0.79
2013-4-18,37.4,34.5,32.4,34.5,30.7,27.1,92,86,76,29.56,29.35,0,0,0,0.53
2013-4-19,46.8,38.2,29.9,27.5,23.4,21.2,79,57,38,29.76,29.52,0,0,0,0.00
2013-4-20,47.5,39.0,28.8,29.4,23.6,19.2,73,55,39,29.91,29.76,0,0,0,0.00
2013-4-21,68.9,55.3,44.8,51.1,39.1,29.4,85,56,39,29.79,29.64,0,0,0,0.47
2013-4-22,57.2,46.1,33.3,53.2,42.4,28.6,91,87,79,29.85,29.60,0,0,0,1.20
2013-4-23,40.3,34.3,29.7,28.6,24.4,20.9,83,68,53,29.91,29.79,0,0,0,0.00
2013-4-24,60.5,43.8,28.1,38.7,29.7,21.2,76,60,32,29.86,29.68,0,0,0,0.00
2013-4-25,68.9,53.0,34.7,41.4,35.1,27.1,77,54,33,29.91,29.68,0,0,0,0.00
2013-4-26,71.6,59.3,51.1,50.9,43.8,36.2,74,57,46,29.85,29.69,0,0,0,0.00
2013-4-27,68.0,56.9,46.3,54.9,47.1,40.5,84,71,54,29.86,29.61,0,0,0,0.00
2013-4-28,81.0,64.8,47.9,55.8,49.6,42.8,86,61,37,29.62,29.36,0,0,0,0.00
2013-4-29,84.6,70.0,57.8,59.9,53.6,48.6,81,58,34,29.44,29.19,0,0,0,0.00
2013-4-30,75.2,69.9,60.3,56.1,50.7,44.1,60,51,42,29.55,29.17,0,0,0,0.05
2013-5-1,60.7,43.8,34.0,46.4,36.9,31.3,91,78,54,30.05,29.55,0,0,0,0.65
2013-5-2,48.6,40.6,33.5,32.9,30.4,27.5,91,69,48,30.16,30.02,0,0,0,0.47
2013-5-3,46.4,40.8,33.1,34.2,28.9,26.0,78,63,54,30.02,29.69,0,0,0,0.00
2013-5-4,44.3,40.2,35.6,40.2,36.0,31.3,90,85,74,29.78,29.63,0,0,0,0.05
2013-5-5,54.7,47.6,42.1,48.2,43.3,39.3,91,85,78,29.82,29.76,0,0,0,0.02
2013-5-6,67.0,55.8,48.6,54.6,48.7,45.2,89,78,61,29.81,29.68,0,0,0,0.00
2013-5-7,75.2,63.4,48.6,58.1,51.8,43.7,86,68,48,29.74,29.60,0,0,0,0.00
2013-5-8,71.1,65.0,59.2,59.4,55.5,50.9,80,72,60,29.63,29.55,0,0,0,0.01
2013-5-9,68.8,60.9,57.1,58.5,55.4,53.4,90,82,62,29.65,29.53,0,0,0,1.26
2013-5-10,68.2,58.8,50.6,53.4,47.7,44.9,86,68,44,29.75,29.65,0,0,0,0.00
2013-5-11,59.8,55.8,48.4,46.2,31.8,21.6,74,42,24,29.90,29.68,0,0,0,0.00
2013-5-12,65.2,54.1,38.3,37.0,31.2,26.9,77,44,25,29.94,29.76,0,0,0,0.00
2013-5-13,82.1,67.2,49.3,51.0,43.4,29.3,63,43,31,29.77,29.51,0,0,0,0.00
2013-5-14,97.6,81.4,61.9,62.8,54.7,50.0,70,43,22,29.52,29.30,0,0,0,0.00
2013-5-15,83.5,76.3,65.3,54.7,43.4,37.8,47,32,22,29.59,29.44,0,0,0,0.00
2013-5-16,86.4,76.4,66.8,63.9,55.5,43.7,64,49,35,29.54,29.42,0,0,0,0.00
2013-5-17,85.3,76.7,67.0,64.1,59.9,56.8,72,57,42,29.57,29.48,0,0,0,0.00
2013-5-18,85.5,76.9,66.6,66.5,62.2,57.1,74,61,47,29.56,29.36,0,0,0,0.00
2013-5-19,78.3,67.2,61.2,67.6,60.7,54.7,88,80,59,29.47,29.17,0,0,0,0.84
2013-5-20,76.9,67.7,58.3,60.8,56.5,51.4,87,69,52,29.34,29.18,0,0,0,0.00
2013-5-21,65.5,61.6,56.2,54.9,51.2,48.4,80,69,58,29.40,29.29,0,0,0,0.00
2013-5-22,60.7,56.6,52.9,52.7,48.9,47.3,82,76,67,29.63,29.39,0,0,0,0.01
2013-5-23,72.0,61.4,52.6,53.1,47.6,42.7,86,63,38,29.89,29.64,0,0,0,0.00
2013-5-24,74.3,65.1,53.6,53.5,48.1,42.6,67,55,45,29.94,29.69,0,0,0,0.00
2013-5-25,79.6,67.7,58.3,68.0,58.0,46.0,90,72,51,29.78,29.62,0,0,0,0.32
2013-5-26,81.9,70.0,63.5,70.6,63.7,58.7,88,81,68,29.66,29.50,0,0,0,0.00
2013-5-27,76.5,67.7,59.8,66.6,61.8,57.1,93,82,67,29.57,29.28,0,0,0,1.45
2013-5-28,80.5,71.6,63.4,67.4,63.3,58.8,91,76,48,29.40,29.29,0,0,0,0.07
2013-5-29,74.7,68.9,63.2,69.2,63.6,59.8,90,83,74,29.40,29.23,0,0,0,0.74
2013-5-30,74.9,66.6,61.6,65.7,60.8,54.5,93,82,68,29.32,29.19,0,0,0,0.37
2013-5-31,79.4,69.8,57.6,60.1,54.9,48.0,84,61,41,29.39,29.29,0,0,0,0.00
2013-6-1,66.2,59.3,55.6,53.9,50.1,47.0,85,72,52,29.68,29.34,0,0,0,0.03
2013-6-2,70.7,59.9,52.6,52.9,47.5,44.3,84,65,47,29.78,29.67,0,0,0,0.00
2013-6-3,75.2,65.3,52.7,54.7,50.4,45.4,77,60,43,29.71,29.50,0,0,0,0.00
2013-6-4,72.9,65.9,58.5,63.8,58.5,52.9,88,77,65,29.65,29.54,0,0,0,0.11
2013-6-5,72.9,66.0,59.4,62.4,53.4,47.3,87,65,43,29.71,29.62,0,0,0,0.02
2013-6-6,71.5,65.4,57.6,57.6,51.4,48.9,76,62,48,29.67,29.61,0,0,0,0.00
2013-6-7,73.4,67.6,62.3,54.2,51.6,49.2,66,57,46,29.71,29.56,0,0,0,0.00
2013-6-8,70.2,63.0,58.7,62.4,55.7,49.1,89,77,64,29.57,29.35,0,0,0,0.55
2013-6-9,69.3,63.6,60.8,61.6,58.9,57.0,90,85,71,29.50,29.38,0,0,0,0.32
2013-6-10,77.6,68.2,59.8,66.3,61.0,55.6,88,78,65,29.57,29.45,0,0,0,0.00
2013-6-11,86.6,76.8,68.8,71.7,66.3,62.5,83,71,49,29.51,29.38,0,0,0,0.00
2013-6-12,88.6,78.6,65.5,73.1,64.6,53.0,78,63,47,29.68,29.35,0,0,0,0.00
2013-6-13,79.6,69.5,60.8,61.3,56.7,52.8,77,65,44,29.76,29.62,0,0,0,0.00
2013-6-14,86.6,73.3,65.2,71.4,63.8,57.7,87,73,60,29.70,29.44,0,0,0,1.07
2013-6-15,81.7,74.0,67.5,71.2,65.6,62.5,88,76,60,29.63,29.49,0,0,0,0.00
2013-6-16,86.0,77.2,68.4,70.4,64.4,58.0,90,67,40,29.65,29.60,0,0,0,0.01
2013-6-17,86.9,78.4,67.3,66.5,58.9,54.1,78,53,35,29.68,29.60,0,0,0,0.00
2013-6-18,81.0,72.6,65.2,67.0,59.1,53.0,86,64,45,29.75,29.63,0,0,0,0.28
2013-6-19,85.9,76.3,65.5,68.0,62.8,57.1,80,64,48,29.68,29.56,0,0,0,0.00
2013-6-20,90.2,80.9,69.5,73.6,68.9,63.1,82,68,56,29.63,29.48,0,0,0,0.04
2013-6-21,92.5,84.9,77.4,74.9,71.7,69.2,77,66,53,29.55,29.45,0,0,0,0.00
2013-6-22,90.7,82.3,72.9,72.6,66.6,59.4,72,60,50,29.68,29.46,0,0,0,0.00
2013-6-23,80.6,74.8,65.7,69.9,66.7,61.6,88,76,63,29.61,29.42,0,0,0,0.25
2013-6-24,81.9,75.8,65.9,72.6,69.2,61.8,87,80,71,29.66,29.40,0,0,0,0.24
2013-6-25,87.8,79.7,70.7,74.9,70.3,66.0,86,74,61,29.49,29.34,0,0,0,0.08
2013-6-26,90.5,82.2,74.5,71.8,66.5,59.2,90,61,36,29.56,29.34,0,0,0,0.00
2013-6-27,82.6,74.7,69.8,70.5,66.5,62.5,88,76,60,29.67,29.55,0,0,0,0.17
2013-6-28,85.0,77.9,69.7,68.3,59.4,53.3,81,55,35,29.65,29.56,0,0,0,0.00
2013-6-29,79.6,73.2,66.2,59.8,56.0,53.7,67,55,46,29.62,29.55,0,0,0,0.00
2013-6-30,78.8,70.9,63.0,58.5,54.5,51.0,76,58,40,29.77,29.62,0,0,0,0.00
2013-7-1,82.1,73.1,60.3,56.9,52.9,50.6,72,51,35,29.85,29.76,0,0,0,0.00
2013-7-2,83.0,72.7,63.5,60.7,56.3,52.0,74,57,42,29.83,29.71,0,0,0,0.00
2013-7-3,85.0,73.5,61.0,64.7,57.9,54.2,81,60,42,29.73,29.61,0,0,0,0.00
2013-7-4,85.7,75.9,63.7,63.9,57.9,53.5,71,55,38,29.67,29.56,0,0,0,0.00
2013-7-5,85.7,78.1,67.9,66.5,61.8,55.6,68,58,51,29.60,29.51,0,0,0,0.00
2013-7-6,88.4,79.3,70.7,69.0,64.6,60.0,71,61,50,29.55,29.48,0,0,0,0.00
2013-7-7,92.7,83.4,74.0,70.6,66.8,61.1,68,58,46,29.58,29.49,0,0,0,0.02
2013-7-8,90.7,83.0,77.0,73.8,70.3,65.4,73,66,56,29.65,29.57,0,0,0,0.00
2013-7-9,93.6,85.6,77.0,76.5,72.3,68.3,78,65,54,29.63,29.55,0,0,0,0.00
2013-7-10,84.1,78.9,72.5,69.8,64.6,61.1,77,62,48,29.76,29.63,0,0,0,0.02
2013-7-11,85.3,77.3,66.2,64.1,61.3,56.7,75,59,46,29.77,29.64,0,0,0,0.00
2013-7-12,88.9,79.2,68.2,71.0,64.5,57.7,73,61,54,29.68,29.59,0,0,0,0.00
2013-7-13,87.3,79.2,73.4,73.5,66.0,60.7,70,64,58,29.66,29.59,0,0,0,0.01
2013-7-14,86.6,78.7,69.8,66.2,62.3,58.5,73,58,43,29.82,29.66,0,0,0,0.02
2013-7-15,87.7,79.0,68.8,71.4,66.0,60.0,77,65,52,29.86,29.78,0,0,0,0.08
2013-7-16,90.0,81.9,70.9,70.6,67.9,65.0,83,64,50,29.92,29.83,0,0,0,0.01
2013-7-17,93.2,84.4,74.2,73.6,70.2,67.4,81,64,49,29.96,29.83,0,0,0,0.00
2013-7-18,94.1,85.5,74.5,75.1,69.1,66.3,78,59,45,29.84,29.61,0,0,0,0.02
2013-7-19,92.9,84.3,76.3,72.8,65.7,59.8,69,55,35,29.62,29.55,0,0,0,0.00
2013-7-20,87.8,79.9,69.8,65.1,61.1,57.9,70,54,40,29.68,29.53,0,0,0,0.00
2013-7-21,90.0,80.1,72.2,72.5,68.4,61.1,86,68,53,29.60,29.45,0,0,0,0.17
2013-7-22,92.2,82.4,70.9,77.1,71.6,63.3,87,71,55,29.53,29.42,0,0,0,0.01
2013-7-23,81.2,74.8,66.6,65.9,62.7,59.4,84,67,56,29.70,29.51,0,0,0,0.02
2013-7-24,82.3,74.5,64.3,63.2,60.2,56.9,80,62,48,29.75,29.67,0,0,0,0.00
2013-7-25,82.1,75.3,70.0,67.8,63.5,60.1,76,67,56,29.71,29.65,0,0,0,0.00
2013-7-26,76.3,71.4,66.2,64.3,57.9,51.8,86,64,43,29.78,29.64,0,0,0,0.00
2013-7-27,72.9,67.0,58.5,53.1,49.5,45.1,75,55,40,29.80,29.68,0,0,0,0.00
2013-7-28,78.8,70.4,60.7,54.6,49.8,47.6,63,49,38,29.75,29.68,0,0,0,0.01
2013-7-29,73.6,66.6,60.5,61.9,56.1,48.3,88,71,47,29.74,29.68,0,0,0,0.07
2013-7-30,78.1,70.8,65.2,67.6,64.2,61.6,89,80,67,29.77,29.69,0,0,0,0.00
2013-7-31,85.9,76.3,64.8,68.5,64.1,60.2,87,67,47,29.81,29.71,0,0,0,0.00
2013-8-1,85.3,76.7,69.7,69.0,63.8,60.1,80,65,49,29.76,29.54,0,0,0,0.17
2013-8-2,83.2,75.6,68.4,68.9,65.0,59.1,84,70,59,29.69,29.51,0,0,0,0.00
2013-8-3,78.8,72.5,66.1,62.6,58.4,56.5,73,62,50,29.84,29.70,0,0,0,0.00
2013-8-4,79.0,72.1,62.3,67.1,59.8,53.6,75,66,57,29.85,29.69,0,0,0,0.00
2013-8-5,86.2,76.5,69.8,74.9,69.3,63.4,86,79,67,29.71,29.52,0,0,0,0.00
2013-8-6,87.7,78.4,67.3,74.7,70.7,63.2,90,78,63,29.62,29.47,0,0,0,0.26
2013-8-7,83.0,77.6,71.1,72.6,64.4,58.6,86,65,45,29.67,29.50,0,0,0,0.00
2013-8-8,77.8,71.8,66.1,65.0,62.1,59.1,79,72,63,29.70,29.63,0,0,0,0.00
2013-8-9,80.5,73.5,64.4,69.0,62.8,58.2,87,70,55,29.81,29.69,0,0,0,0.00
2013-8-10,82.8,73.4,60.8,64.0,60.7,55.5,84,65,51,29.87,29.75,0,0,0,0.00
2013-8-11,87.1,77.3,66.8,70.3,64.9,58.7,77,66,55,29.79,29.65,0,0,0,0.00
2013-8-12,83.7,77.1,70.9,68.7,64.1,59.0,81,65,44,29.74,29.66,0,0,0,0.00
2013-8-13,79.0,72.8,65.3,59.9,57.5,53.9,75,59,46,29.84,29.74,0,0,0,0.00
2013-8-14,77.2,69.5,61.0,62.0,56.7,52.8,76,64,53,29.86,29.74,0,0,0,0.02
2013-8-15,67.0,62.7,59.8,60.2,57.9,56.3,90,84,74,29.77,29.71,0,0,0,0.96
2013-8-16,73.4,67.2,61.6,60.3,58.1,56.3,86,73,62,29.84,29.76,0,0,0,0.00
2013-8-17,79.7,73.0,63.9,62.8,58.9,56.4,80,62,50,29.86,29.78,0,0,0,0.00
2013-8-18,81.7,74.3,63.9,65.2,59.9,54.9,74,61,51,29.83,29.72,0,0,0,0.00
2013-8-19,85.3,78.0,67.7,69.9,65.4,59.1,76,66,59,29.74,29.61,0,0,0,0.00
2013-8-20,88.9,80.0,70.2,71.9,68.3,64.3,82,68,56,29.65,29.58,0,0,0,0.00
2013-8-21,91.1,81.4,71.3,72.6,69.3,64.8,81,68,53,29.68,29.61,0,0,0,0.00
2013-8-22,83.2,77.3,71.8,69.7,67.0,64.2,79,71,61,29.77,29.64,0,0,0,0.00
2013-8-23,89.5,79.6,70.7,74.6,68.8,65.4,85,71,52,29.75,29.65,0,0,0,0.00
2013-8-24,91.3,82.1,74.5,74.6,70.6,67.3,80,69,56,29.74,29.67,0,0,0,0.00
2013-8-25,94.1,84.3,73.6,74.8,71.6,67.7,83,67,51,29.79,29.70,0,0,0,0.00
2013-8-26,94.7,85.3,74.2,74.7,71.0,67.6,81,64,49,29.76,29.62,0,0,0,0.00
2013-8-27,95.9,85.8,76.1,72.9,69.2,65.8,71,59,46,29.64,29.57,0,0,0,0.00
2013-8-28,95.8,83.4,70.9,72.7,66.5,62.4,75,58,39,29.67,29.60,0,0,0,0.00
2013-8-29,95.0,84.2,73.3,75.6,70.8,65.1,83,65,48,29.68,29.58,0,0,0,0.00
2013-8-30,96.3,85.0,74.0,77.1,71.7,67.2,80,66,45,29.59,29.50,0,0,0,0.00
2013-8-31,91.6,81.7,74.0,75.6,71.1,68.2,83,71,52,29.57,29.46,0,0,0,0.00
2013-9-1,81.2,75.5,69.7,69.8,63.2,57.3,89,67,46,29.68,29.45,0,0,0,0.30
2013-9-2,78.5,70.9,62.6,61.0,56.7,50.4,81,62,38,29.77,29.67,0,0,0,0.00
2013-9-3,84.1,72.6,58.3,64.4,59.6,53.0,84,65,48,29.77,29.68,0,0,0,0.00
2013-9-4,83.2,74.7,69.3,66.1,61.7,59.3,73,64,51,29.80,29.70,0,0,0,0.00
2013-9-5,81.4,74.9,67.5,67.8,64.3,61.9,85,70,58,29.86,29.75,0,0,0,0.08
2013-9-6,90.4,79.4,68.6,72.0,66.5,60.3,76,65,54,29.77,29.58,0,0,0,0.00
2013-9-7,89.1,80.4,72.2,72.5,68.6,64.2,77,68,52,29.60,29.52,0,0,0,0.00
2013-9-8,91.6,81.4,72.4,75.8,71.3,67.2,86,72,55,29.60,29.47,0,0,0,0.00
2013-9-9,97.2,85.6,75.2,72.7,64.9,60.4,75,52,32,29.53,29.46,0,0,0,0.00
2013-9-10,95.0,80.6,70.9,69.7,64.2,59.0,84,59,39,29.73,29.53,0,0,0,0.57
2013-9-11,82.6,74.9,69.3,71.7,67.7,64.3,90,79,62,29.78,29.71,0,0,0,0.31
2013-9-12,78.1,73.3,68.4,67.7,57.8,48.9,85,60,37,29.89,29.78,0,0,0,0.00
2013-9-13,74.3,68.8,60.7,55.4,52.2,50.3,70,56,45,29.89,29.74,0,0,0,0.00
2013-9-14,77.4,69.9,58.5,56.4,52.6,45.7,63,54,46,29.75,29.55,0,0,0,0.00
2013-9-15,76.7,69.3,64.3,61.7,57.1,52.2,83,66,49,29.90,29.53,0,0,0,0.25
2013-9-16,67.0,63.6,59.0,55.3,53.1,50.9,76,69,62,29.98,29.86,0,0,0,0.01
2013-9-17,74.3,66.8,58.5,66.6,59.8,53.3,86,78,72,29.86,29.55,0,0,0,0.13
2013-9-18,88.9,79.7,70.2,71.7,67.4,63.6,80,67,52,29.57,29.37,0,0,0,0.00
2013-9-19,81.7,73.0,62.1,69.3,62.4,50.6,88,70,57,29.67,29.40,0,0,0,0.26
2013-9-20,69.7,63.8,57.2,52.7,48.6,45.4,72,58,42,29.75,29.63,0,0,0,0.00
2013-9-21,75.4,66.0,56.5,53.2,49.7,45.2,68,56,43,29.71,29.53,0,0,0,0.00
2013-9-22,80.5,69.7,59.4,60.8,53.1,49.7,73,57,40,29.58,29.48,0,0,0,0.00
2013-9-23,77.0,67.0,55.6,56.6,51.5,48.5,79,59,40,29.53,29.40,0,0,0,0.00
2013-9-24,71.6,68.0,62.8,58.7,55.6,51.8,72,65,57,29.58,29.39,0,0,0,0.00
2013-9-25,79.9,70.3,62.1,60.3,57.1,53.1,73,64,48,29.59,29.42,0,0,0,0.00
2013-9-26,85.1,73.4,61.7,61.9,59.2,56.5,84,63,42,29.50,29.42,0,0,0,0.00
2013-9-27,87.8,77.9,70.6,63.9,60.7,58.9,70,57,40,29.53,29.44,0,0,0,0.00
2013-9-28,79.2,67.9,57.1,63.2,53.1,45.4,79,60,43,29.73,29.36,0,0,0,0.33
2013-9-29,78.1,65.7,54.0,51.3,47.3,43.7,69,53,37,29.73,29.55,0,0,0,0.00
2013-9-30,80.6,70.3,61.0,55.1,50.7,46.2,63,50,39,29.58,29.39,0,0,0,0.00
2013-10-1,78.8,70.6,61.4,54.4,52.2,49.7,68,53,40,29.62,29.45,0,0,0,0.00
2013-10-2,85.0,73.6,61.6,65.6,58.8,50.2,78,61,47,29.63,29.49,0,0,0,0.00
2013-10-3,79.4,72.0,64.1,66.0,61.8,57.6,82,70,60,29.55,29.39,0,0,0,1.07
2013-10-4,80.6,69.5,61.9,71.1,61.7,45.0,87,77,53,29.56,29.30,0,0,0,0.58
2013-10-5,63.5,55.1,45.0,48.6,39.7,34.8,71,56,50,29.63,29.48,0,0,0,0.00
2013-10-6,50.8,47.2,43.4,46.1,41.8,36.6,87,82,68,29.66,29.44,0,0,0,0.07
2013-10-7,72.9,57.5,43.2,50.0,43.7,37.9,83,62,40,29.74,29.65,0,0,0,0.00
2013-10-8,76.1,63.3,50.2,50.9,45.4,40.7,71,53,38,29.67,29.56,0,0,0,0.00
2013-10-9,76.7,64.9,54.5,55.1,49.8,45.8,74,59,44,29.68,29.60,0,0,0,0.00
2013-10-10,78.3,66.6,55.4,57.8,52.1,46.9,75,60,45,29.66,29.47,0,0,0,0.00
2013-10-11,77.9,67.3,56.5,60.3,51.7,41.9,77,59,35,29.56,29.31,0,0,0,0.00
2013-10-12,65.9,57.0,48.6,43.9,38.7,33.8,70,52,31,29.93,29.56,0,0,0,0.00
2013-10-13,68.2,55.2,41.4,43.6,38.0,34.6,77,55,33,30.06,29.93,0,0,0,0.00
2013-10-14,59.2,54.3,47.5,56.2,43.9,33.7,91,69,48,29.94,29.40,0,0,0,0.81
2013-10-15,58.7,49.9,46.4,54.6,41.7,37.5,86,73,65,29.72,29.47,0,0,0,0.00
2013-10-16,56.0,49.1,44.6,41.8,37.8,31.7,78,66,40,29.74,29.63,0,0,0,0.00
2013-10-17,61.0,48.4,39.2,43.7,37.9,33.3,79,68,51,29.71,29.55,0,0,0,0.00
2013-10-18,51.8,44.4,39.2,37.5,33.6,29.4,75,66,48,29.79,29.66,0,0,0,0.00
2013-10-19,61.6,47.8,34.7,41.1,34.9,27.5,78,63,40,29.66,29.48,0,0,0,0.00
2013-10-20,64.1,52.7,43.9,46.2,39.3,34.0,73,61,40,29.68,29.38,0,0,0,0.00
2013-10-21,56.3,45.5,36.5,46.6,35.1,29.5,78,67,54,29.77,29.60,0,0,0,0.00
2013-10-22,47.7,44.7,41.4,40.8,36.4,31.7,79,72,67,29.77,29.52,0,0,0,0.00
2013-10-23,48.2,41.6,36.2,42.7,34.7,30.0,83,77,68,29.85,29.70,0,0,0,0.01
2013-10-24,48.8,41.8,35.1,41.9,29.8,26.1,82,63,42,30.05,29.85,0,0,0,0.00
2013-10-25,58.9,45.0,31.3,38.4,31.1,23.7,74,60,45,30.05,29.72,0,0,0,0.00
2013-10-26,54.7,45.9,37.4,35.5,32.1,27.8,71,59,41,29.87,29.68,0,0,0,0.00
2013-10-27,70.9,49.4,33.3,44.9,33.8,25.2,73,57,38,29.81,29.49,0,0,0,0.00
2013-10-28,54.9,48.2,41.8,39.4,35.6,32.0,70,62,52,29.84,29.60,0,0,0,0.00
2013-10-29,58.5,47.9,42.1,55.6,43.6,36.8,91,85,69,29.86,29.60,0,0,0,0.16
2013-10-30,61.6,52.2,43.9,57.8,48.8,40.3,92,88,81,29.62,29.43,0,0,0,0.05
2013-10-31,56.5,47.0,41.6,47.3,40.2,36.8,87,78,56,29.44,29.19,0,0,0,0.00
2013-11-1,58.7,47.8,41.0,42.9,38.3,35.6,82,71,44,29.65,29.27,0,0,0,0.01
2013-11-2,57.1,46.8,38.2,40.1,36.0,32.0,79,67,50,29.84,29.64,0,0,0,0.00
2013-11-3,56.9,49.7,41.0,42.4,35.6,31.7,70,59,48,29.75,29.43,0,0,0,0.00
2013-11-4,59.4,51.3,41.8,50.8,39.0,33.1,79,63,52,29.79,29.46,0,0,0,0.00
2013-11-5,46.8,42.8,35.1,43.0,37.2,31.9,89,81,68,29.80,29.48,0,0,0,0.74
2013-11-6,44.3,37.9,34.2,35.8,32.0,28.9,89,80,70,29.92,29.68,0,0,0,0.00
2013-11-7,48.2,39.1,31.3,36.4,27.9,22.5,83,66,37,30.04,29.91,0,0,0,0.00
2013-11-8,62.6,48.5,35.6,39.2,33.7,25.7,68,57,40,29.92,29.41,0,0,0,0.00
2013-11-9,62.1,50.5,43.0,44.9,35.1,29.9,69,56,39,29.99,29.58,0,0,0,0.00
2013-11-10,53.8,45.6,35.3,35.1,30.9,27.0,72,57,46,30.06,29.80,0,0,0,0.00
2013-11-11,47.7,34.6,20.9,38.5,24.1,10.1,81,65,52,30.39,29.76,0,0,0,0.00
2013-11-12,34.6,25.1,16.9,16.5,11.5,7.7,68,57,44,30.50,30.19,0,0,0,0.00
2013-11-13,53.3,38.1,24.8,31.5,21.7,11.3,64,52,41,30.19,29.66,0,0,0,0.00
2013-11-14,54.0,43.3,35.3,35.2,29.0,23.2,67,57,48,29.66,29.56,0,0,0,0.00
2013-11-15,55.4,43.6,32.0,40.2,32.9,24.7,76,67,51,29.57,29.29,0,0,0,0.00
2013-11-16,65.5,54.2,46.4,52.7,42.9,33.7,86,67,47,29.29,29.01,0,0,0,0.00
2013-11-17,60.7,49.6,42.1,50.0,37.5,32.7,80,63,51,29.72,29.00,0,0,0,0.04
2013-11-18,56.5,43.7,32.9,42.4,30.0,25.2,84,60,38,29.91,29.71,0,0,0,0.00
2013-11-19,61.2,48.9,37.8,36.0,28.9,24.7,62,47,32,29.84,29.55,0,0,0,0.00
2013-11-20,54.9,47.9,40.3,37.1,32.8,27.8,78,56,42,29.60,29.43,0,0,0,0.00
2013-11-21,40.7,30.2,22.5,33.7,23.8,17.2,84,77,68,30.18,29.60,0,0,0,0.00
2013-11-22,30.8,23.2,15.8,17.0,12.5,7.6,78,64,47,30.33,30.18,0,0,0,0.03
2013-11-23,25.4,19.7,14.4,14.1,7.0,2.6,70,58,44,30.50,30.25,0,0,0,0.00
2013-11-24,33.5,22.1,13.0,22.0,10.8,4.1,68,62,53,30.38,29.86,0,0,0,0.00
2013-11-25,43.9,35.0,27.4,30.2,22.6,15.0,67,60,51,29.86,29.76,0,0,0,0.00
2013-11-26,33.3,29.1,23.4,27.5,16.4,7.2,82,60,41,30.06,29.84,0,0,0,0.00
2013-11-27,34.9,25.8,15.3,27.2,13.4,6.6,83,60,48,30.06,29.69,0,0,0,0.00
2013-11-28,34.4,29.4,23.8,21.4,17.6,14.0,72,61,51,30.12,29.71,0,0,0,0.00
2013-11-29,44.8,32.6,21.4,28.7,21.2,13.0,72,63,53,30.12,29.80,0,0,0,0.00
2013-11-30,55.4,41.5,31.3,36.4,27.7,21.4,69,59,43,29.80,29.71,0,0,0,0.00
2013-12-1,50.8,38.5,30.6,34.1,26.5,22.0,71,62,49,29.81,29.53,0,0,0,0.00
2013-12-2,61.9,45.9,34.9,39.5,32.3,26.3,77,60,43,29.52,29.20,0,0,0,0.00
2013-12-3,45.7,40.8,36.7,36.4,32.5,29.7,81,72,60,29.35,29.17,0,0,0,0.00
2013-12-4,37.1,24.4,16.9,31.7,18.2,7.1,88,77,64,29.72,29.30,0,0,0,0.00
2013-12-5,17.6,13.0,9.4,7.8,0.7,-5.6,67,58,49,30.07,29.71,0,0,0,0.00
2013-12-6,12.6,7.0,0.7,-3.1,-5.6,-9.1,63,56,47,30.33,30.07,0,0,0,0.00
2013-12-7,13.7,9.1,1.6,2.1,-2.8,-8.2,65,58,52,30.37,30.04,0,0,0,0.00
2013-12-8,21.6,16.1,11.9,13.5,8.4,0.6,79,71,58,30.04,29.66,0,0,0,0.00
2013-12-9,14.8,8.9,3.2,7.3,-0.4,-5.6,74,65,58,29.94,29.78,0,0,0,0.00
2013-12-10,29.7,24.1,15.8,23.9,13.5,6.0,79,64,55,29.89,29.72,0,0,0,0.00
2013-12-11,30.2,12.5,5.4,24.2,2.4,-5.6,80,64,54,30.29,29.89,0,0,0,0.00
2013-12-12,32.8,20.7,7.6,21.2,11.5,0.4,76,68,62,30.10,29.73,0,0,0,0.00
2013-12-13,32.4,26.1,19.4,23.8,18.6,12.6,78,73,68,29.73,29.55,0,0,0,0.00
2013-12-14,22.9,19.8,15.3,16.8,12.7,9.3,78,74,67,29.87,29.73,0,0,0,0.00
2013-12-15,29.3,22.6,16.9,23.3,15.2,10.2,79,73,68,29.82,29.62,0,0,0,0.00
2013-12-16,45.5,28.7,15.5,31.7,20.1,9.1,76,71,57,29.81,29.64,0,0,0,0.00
2013-12-17,41.0,33.8,29.2,25.9,21.1,16.2,78,61,39,29.93,29.76,0,0,0,0.00
2013-12-18,53.1,38.8,29.2,34.8,25.9,17.0,70,60,48,29.76,29.38,0,0,0,0.00
2013-12-19,34.9,31.0,20.7,26.3,23.0,16.6,85,72,66,29.54,29.40,0,0,0,0.00
2013-12-20,21.2,17.3,13.7,16.1,11.7,9.2,83,78,72,29.65,29.54,0,0,0,0.00
2013-12-21,27.4,22.7,20.2,20.3,15.2,12.2,79,73,68,29.56,29.46,0,0,0,0.00
2013-12-22,22.7,18.6,13.3,17.6,11.0,3.3,84,72,59,29.96,29.52,0,0,0,0.00
2013-12-25,41.0,34.2,26.1,27.4,22.5,17.6,71,62,52,29.95,29.86,0,0,0,0.00
2013-12-26,47.2,33.9,24.8,30.0,22.2,17.0,76,63,47,29.90,29.75,0,0,0,0.00
2013-12-27,60.3,39.7,25.7,35.4,25.3,16.9,73,58,36,29.91,29.73,0,0,0,0.00
2013-12-28,57.1,39.6,17.5,33.8,25.7,7.3,76,59,37,29.78,29.42,0,0,0,0.00
2013-12-29,40.0,13.2,6.8,9.6,-12.3,-59.9,85,40,1,29.99,29.79,0,0,0,0.00
2013-12-30,119.5,27.0,14.0,48.4,-10.9,-53.7,94,27,1,29.93,29.72,0,0,0,0.00
2013-12-31,83.5,20.2,13.3,26.5,13.0,4.4,99,76,45,29.91,29.70,0,0,0,0.00
2014-1-1,13.3,10.1,5.6,4.9,2.2,-3.1,76,70,67,30.04,29.78,0,0,0,0.00
2014-1-2,12.8,7.3,4.0,0.6,-2.2,-4.9,70,65,54,30.10,30.00,0,0,0,0.00